Wittman Regional Airport Oshkosh US
ICAO: KOSH
IATA: OSH
Category: Medium
Scheduled Services: No

Elevation: 808 ft
TransAlt. 18000 ft.

Airport Communications:
ATIS:125.9
CHICAGO CNTR:127
CTAF:118.5
GND:121.9
GREEN BAY RDO:122.25
OSHKOSH TWR:118.5
UNICOM:122.95

KOSH Zoom In..

If you have problems with the map follow the link
https://www.worldairports.se/pages/airport.php?
ICAO=KOSH

Runways:

(A) RW 04 length 3697 ft width 75 ft
---- / hdg 48

(B) RW 09 length 6179 ft width 150 ft
---- / hdg 94

(C) RW 13 length 3061 ft width 75 ft
---- / hdg 132

(D) RW 18 length 8002 ft width 150 ft
---- / hdg 184

(E) RW 22 length 3697 ft width 75 ft
---- / hdg 228

(F) RW 27 length 6179 ft width 150 ft
---- / hdg 274

(G) RW 31 length 3061 ft width 75 ft
---- / hdg 312

(H) RW 36 length 8002 ft width 150 ft
ILS 110.50 / hdg 4

Location; KOSH
Day. 25 / Time. 09.01 Zulu
* Altimeter: 29.75
* Temperature: 00° c. 32°f.
* Wind from: 340° Speed 06 kn.
Dewpoint: -01° c.
Visibility: 1 m.
Clouds: Overcast 500 ft.
Conditions: Light Snow.Conditions: Mist.

KOSH 250901Z AUTO 34006KT 1 3/4SM -SN BR OVC005 00/M01 A2975 RMK AO2 CIG 003V008 P0000 T00001006


Wind From 340°
Speed 06 kn.

 
 
jpsmedia worldairports.se 2020   terms of use